Regional Weather Roundup
Issued by NWS

Home | Current Version | Previous Version | Graphics & Text | Print | Product List | Glossary Off
Versions: 1 2 3 4 5 6 7 8 9 10 11 12 13 14 15 16 17 18 19 20 21 22 23 24 25 26 27 28 29 30 31 32 33 34 35 36 37 38 39 40 41 42 43 44 45 46 47 48 49 50

000
ASUS43 KMKX 261411
RWRWI

WISCONSIN REGIONAL WEATHER ROUNDUP
NATIONAL WEATHER SERVICE MILWAUKEE/SULLIVAN WI
900 AM CDT WED JUL 26 2017

NOTE: "FAIR" INDICATES FEW OR NO CLOUDS BELOW 12,000 FEET WITH NO
SIGNIFICANT WEATHER AND/OR OBSTRUCTIONS TO VISIBILITY.

WIZ001-002-006>008-014>016-023>028-261500-
NORTHWEST WISCONSIN

CITY           SKY/WX    TMP DP  RH WIND       PRES   REMARKS
SUPERIOR ARPT  NOT AVBL
ASHLAND        CLOUDY    73  66  78 W8        29.99R
HAYWARD        CLOUDY    70  68  93 CALM      30.00R
SIREN          CLOUDY    69  67  94 CALM      30.00S
CUMBERLAND     LGT RAIN  70  68  94 CALM      30.01R
RICE LAKE      DRIZZLE   69  67  94 CALM      30.02R
CHETEK         DRIZZLE   69  69  99 CALM      30.01R
LADYSMITH      LGT RAIN  70  69  96 SW3       30.02S
EAU CLAIRE     PTSUNNY   72  70  93 NW3       29.98F
MENOMONIE      DRIZZLE   70  70 100 CALM      30.00R
NEW RICHMOND   CLOUDY    70  70  98 CALM      30.01S
OSCEOLA        LGT RAIN  72  72 100 NW3       30.04R
$$

WIZ003>005-009-010-017-018-261500-
NORTH CENTRAL WISCONSIN

CITY           SKY/WX    TMP DP  RH WIND       PRES   REMARKS
MANITOWISH WTR CLOUDY    69  69 100 W5        30.00S
ARBOR VITAE    RAIN      72  71  96 W5        30.00S
WOODRUFF       RAIN      72  71  96 W5        30.00S
RHINELANDER    RAIN      69  69 100 SW8       30.03R FOG
EAGLE RIVER    RAIN      69  69  99 W7        30.01R
LAND O LAKES   CLOUDY    70  68  95 NW5       30.01S
PHILLIPS       RAIN      69  69 100 SW5       30.01S
TOMAHAWK       RAIN      68  67  94 CALM      30.03F
MEDFORD        DRIZZLE   67  67  97 NW6       30.01F
MERRILL        NOT AVBL
$$

WIZ029-030-035-036-043>047-261500-
CENTRAL WISCONSIN

CITY           SKY/WX    TMP DP  RH WIND       PRES   REMARKS
WAUSAU         RAIN      67  66  97 VRB3      29.99F FOG
MOSINEE        LGT RAIN  66  66 100 CALM      30.02F
MARSHFIELD     CLOUDY    68  65  90 S7        30.01F
STEVENS POINT  RAIN      67  67 100 SW5       30.04S
WAUPACA        HVY RAIN  70  66  85 SW9       30.06R
WAUTOMA        LGT RAIN  66  64  94 W5        30.05R
WISC RAPIDS    CLOUDY    69  68  96 SW6       30.04F
CAMP DOUGLAS   CLOUDY    73  70  88 W5        30.03F
$$

WIZ011>013-019>022-031-037>040-048>050-261500-
NORTHEAST WISCONSIN

CITY           SKY/WX    TMP DP  RH WIND       PRES   REMARKS
ANTIGO         RAIN      67  67  99 W12G18    30.05R
SHAWANO        LGT RAIN  69  65  87 W8        30.01R
OCONTO         CLOUDY    68  64  86 SW8       29.99R
STURGEON BAY     N/A     68  64  87 SW6       29.99S
GREEN BAY      CLOUDY    71  67  87 SW9       30.00S
MANITOWOC      CLOUDY    70  62  76 S7        30.01S
APPLETON       CLOUDY    68  61  77 SW10      30.01R
CLINTONVILLE   HVY RAIN N/A N/A N/A SW7       30.04R
OSHKOSH        CLOUDY    69  64  84 SW10      30.01S
$$

WIZ032>034-041-042-053>061-261500-
SOUTHWEST WISCONSIN

CITY           SKY/WX    TMP DP  RH WIND       PRES   REMARKS
LA CROSSE      CLOUDY    78  70  76 SE5       30.01S HX  80
SPARTA         CLOUDY    73  68  85 CALM      30.03F
VIROQUA        CLOUDY    71  71  98 CALM      30.06F
BOSCOBEL       PTSUNNY   76  69  79 SW6       30.02F
PRAIRIE DU CHI CLOUDY    74  67  78 CALM      30.02S
PLATTEVILLE    CLOUDY    73  72  96 S10       30.05F
$$

WIZ056-057-062-063-064-067-068-261500-
SOUTH CENTRAL WISCONSIN

CITY           SKY/WX    TMP DP  RH WIND       PRES   REMARKS
REEDSBURG      PTSUNNY   71  70  97 W5        30.05R
BARABOO/DELLS  PTSUNNY   72  65  78 NW14G20   30.07R
LONE ROCK      CLOUDY    73  69  87 S3        30.04R
MINERAL POINT  MOSUNNY   73  72  94 S9        30.05F
MADISON        CLOUDY    71  65  81 SW8       30.04S
MIDDLETON      CLOUDY    71  66  84 SW7       30.05F
WATERTOWN      CLOUDY    70  67  90 SW9       30.05S
MONROE         CLOUDY    70  64  83 S13       30.07S
JANESVILLE     MOSUNNY   72  64  78 SW8       30.06F
$$

WIZ051-052-058>065-066-070>072-261500-
SOUTHEAST WISCONSIN

CITY           SKY/WX    TMP DP  RH WIND       PRES   REMARKS
MILWAUKEE      PTSUNNY   73  63  70 SW14      30.05F
WAUKESHA       PTSUNNY   68  59  73 SW9       30.07F
MILWAUKEE/TIMM SUNNY     70  59  68 SW7       30.06F
RACINE         CLOUDY    73  64  73 SW7       30.08S
KENOSHA        PTSUNNY   72  63  73 SW9       30.07F
FOND DU LAC    CLOUDY    69  62  78 SW13      30.03F
SHEBOYGAN      CLOUDY    69  65  86 SW7       30.03F
WEST BEND      PTSUNNY   70  64  83 SW8       30.04S
JUNEAU         CLOUDY    68  63  84 S6        30.06S
$$

LSZ147-162-261500-
LAKE SUPERIOR

STATION/POSITION TIME  TEMP    WIND        PRES    WAVE
                       AIR SEA DIR/SP/G            HT/PER
                 (UTC) (F)     (DEG/KT/KT) (MB)    (FT/S)
W MID LAKE BUOY  1350   56 50  260/  8/ 10 1013.9R   1
DEVILS ISLAND    1400   66     270/ 11/ 13 1014.5R
PORT WING        1320   70     260/  8/ 11 1014.9S
SAXON HARBOR     1340   71     270/  3/  7 1014.2S
$$

LMZ867-665-643>646-261500-
LAKE MICHIGAN

STATION/POSITION TIME  TEMP    WIND        PRES    WAVE
                       AIR SEA DIR/SP/G            HT/PER
                 (UTC) (F)     (DEG/KT/KT) (MB)    (FT/S)
CHAMBERS ISLAND  1340   70     210/  7/ 13 1014.6R
S GREEN BAY BUOY 1400   71 71  210/ 17/ 21 1014.5
N MID LAKE BUOY  1350   67 66  210/ 16/ 17 1015.5S   5/ 6
NORTHPORT PIER   1340   69     240/  2/  9 1014.9R
KEWAUNEE LAKESHO 1342   69     210/  6/  9 1015.1S
SHEBOYGAN LAKESH 1400   69     200/ 11/ 12 1016.2F
PORT WASHINGTON  1330   72     180/  8/ 10 1017.6F
ATWATER BUOY     1309   71 68  210/  8/ 10 1018.2S
MILWAUKEE LAKESH 1350   71     220/ 10/ 12   N/A
S MID LAKE BUOY  1350   71 70  200/ 12/ 16 1018.5F   3/ 5
KENOSHA   LAKESH 1400   73     220/  6/ 11 1017.9
$$

TC  - TEMPERATURE IN CELSIUS
VSB - VISIBILITY IN STATUTE MILES
WCI - WIND CHILL INDEX
HX  - HEAT INDEX




USA.gov is the U.S. government's official web portal to all federal, state and local government web resources and services.